Regional Weather Roundup
Issued by NWS Charleston, SC

Current Version | Previous Version | Text Only | Print | Product List | Glossary Off
Versions: 1 2 3 4 5 6 7 8 9 10 11 12 13 14 15 16 17 18 19 20 21 22 23 24 25 26 27 28 29 30 31 32 33 34 35 36 37 38 39 40 41 42 43 44 45 46 47 48 49 50

000
ASUS42 KCHS 210210
RWRCHS
REGIONAL WEATHER ROUNDUP
NATIONAL WEATHER SERVICE CHARLESTON SC
900 PM EST THU NOV 20 2014

NOTE: "FAIR" INDICATES FEW OR NO CLOUDS BELOW 12,000 FEET WITH NO
SIGNIFICANT WEATHER AND/OR OBSTRUCTIONS TO VISIBILITY.

NOT ALL STATIONS ARE QUALITY CONTROLLED BY THE NATIONAL
WEATHER SERVICE. USE DATA WITH CAUTION...ESPECIALLY
DEWPOINT OBSERVATIONS.

SCZ027-030-031-034>040-042>050-210300-
...SOUTH CAROLINA...

CITY           SKY/WX    TMP DP  RH WIND       PRES   REMARKS
N CHARLESTON   CLEAR     51  39  63 SW8       30.22R
WATERFRONT PRK   N/A     54 N/A N/A SW7         N/A
FORT JOHNSON   NOT AVBL
JOHNS ISLAND   CLEAR     54  45  71 SW7       30.23R
PINOPOLIS        N/A     54  37  54 SW6       30.13R
MONCKS CORNER  FAIR      50  41  71 SW6       30.21R
SUMMERVILLE    FAIR      45  37  76 CALM      30.22R
BEAUFORT MCAS  CLEAR     49  40  71 SW7       30.24R
BEAUFORT ARPT  FAIR      52  45  76 SW6       30.23S
HILTON HEAD IS CLEAR     48  43  81 S3        30.25S
GEORGETOWN     NOT AVBL
WALTERBORO     CLEAR     46  32  57 SW3       30.23R
ORANGEBURG     PTCLDY    47  35  63 SW6       30.20R
BARNWELL       FAIR      46  37  71 W3        30.22R
AIKEN          FAIR      46  34  61 SW6       30.23R
MANNING        NOT AVBL
KINGSTREE      NOT AVBL
COLUMBIA       PTCLDY    50  34  54 SW7       30.18R
SUMTER         PTCLDY    47  34  59 SW5       30.17R
FLORENCE       CLEAR     47  32  56 SW3       30.17R
MYRTLE BEACH   CLEAR     52  36  54 SW8       30.19R
N MYRTLE BEACH MOCLDY    54  35  48 SW10      30.17R

$$

GAZ063-065-086>088-099>101-113>116-118-119-134-136>141-150-210300-
...GEORGIA...

CITY           SKY/WX    TMP DP  RH WIND       PRES   REMARKS
SAVANNAH ARPT  PTCLDY    49  33  54 SW5       30.25R
HUNTER AAF     PTCLDY    49  35  59 VRB1      30.23R
FORT STEWART   CLEAR     43  36  75 CALM      30.24S
STATESBORO     NOT AVBL
SYLVANIA       CLEAR     53  40  62 CALM      30.24R
CLAXTON        FAIR      41  37  87 CALM      30.25R
THOMSON        CLEAR     43  39  86 CALM      30.26R
AUGUSTA-BUSH   PTCLDY    42  35  76 W6        30.22R
AUGUSTA-DANIEL PTCLDY    52  36  54 W3        30.22R
SWAINSBORO     FAIR      54  43  66 CALM      30.24R
VIDALIA        CLEAR     46  39  76 SW3       30.25R
ALMA           CLEAR     39  36  89 CALM      30.26R
WAYCROSS       CLEAR     45  40  82 CALM      30.27R
JESUP          FAIR      43  36  75 CALM      30.26S
BRUNSWICK      CLEAR     43  37  81 CALM      30.28R
SAINT SIMONS   CLEAR     44  39  82 CALM      30.27R

$$

SCZ027-028-034-036>038-045-046-048>050-GAZ119-141-210300-
...LAKE AND SUPPLEMENTAL COASTAL OBSERVATIONS...

STATION/POSITION TIME  TEMP    WIND        PRES    WAVE   SWELL
                       AIR SEA DIR/SP/G            HT/PER HT/PER/DIR
                 (UTC) (F)     (DEG/KT/KT) (MB)    (FT/S) (FT/S/D)
UPR LAKE MARION  NOT AVBL
WINYAH BAY       0100   53     230/  9     1022.0S
LAKE MURRAY      0100   56     250/ 12/ 15 1020.7S
ACE BASIN NERRS  0100   50        CALM     1023.0R
FORT PULASKI     0200   52     230/  4/  6 1024.5R
SAPELO ISLAND    NOT AVBL

$$

ANZ835-935-AMZ111-154-330-350-352-354-374-450-454-472-210300-
...C-MAN AND BUOY OBSERVATIONS...

STATION/POSITION TIME  TEMP    WIND        PRES    WAVE   SWELL
                       AIR SEA DIR/SP/G            HT/PER HT/PER/DIR
                 (UTC) (F)     (DEG/KT/KT) (MB)    (FT/S) (FT/S/D)
FOLLY BEACH CMAN 0100   56     240/  9/ 12 1023.5R
BUOY 41004       0200   63 72  250/ 19/ 25 1022.7R   4/ 5   2/ 8
BUOY 41008       0200   61 65  230/ 12/ 14 1024.6R   1/ 9   2/ 90/ 9
5E ST. MARYS GA  0200      62                N/A     1/ 8
FRYING PAN BUOY  0200   62 65  240/ 21/ 25 1022.3R   5/ 5
BUOY 41025       0200   61     250/ 21/ 29 1019.4R   7/ 7   2/ 90/11
CAPE LOOKOUT NC  0100   58     250/ 17/ 20 1020.0R
BUOY 41002       0149   66 74  260/ 14/ 19 1023.2R   4/ 6   2/100/ 8
BUOY 41010       0200   70 78   30/ 12/ 16 1023.3S   3/ 7   3/ 90/ 7
BUOY 41012       NOT AVBL
ST AUGUSTINE FL  0200   56     320/  4/  4 1025.6R
CAPERS NEARSHORE 0100   59     240/ 17/ 19   N/A
FRIPP NEARSHORE  NOT AVBL


$$



USA.gov is the U.S. government's official web portal to all federal, state and local government web resources and services.